Time,TemperatureF,DewpointF,PressureIn,WindDirection,WindDirectionDegrees,WindSpeedMPH,WindSpeedGustMPH,Humidity,HourlyPrecipIn,Conditions,Clouds,dailyrainin,SoftwareType,DateUTC
2013-04-06 01:44:00,30.1,17.0,30.05,NNW,344,12.0,-999.0,59,-99.99,,,0.00,weatherlink.com 1.10,2013-04-06 05:44:00,
2013-04-06 01:51:00,30.0,15.0,30.05,NW,322,8.0,-999.0,55,-99.99,,,0.00,weatherlink.com 1.10,2013-04-06 05:51:00,
2013-04-06 03:36:00,27.8,13.0,30.10,NNW,337,16.0,-999.0,55,-99.99,,,0.00,weatherlink.com 1.10,2013-04-06 07:36:00,
2013-04-06 03:51:00,27.5,14.0,30.10,NNW,341,13.0,-999.0,58,-99.99,,,0.00,weatherlink.com 1.10,2013-04-06 07:51:00,
2013-04-06 04:06:00,27.0,14.0,30.11,NNW,332,14.0,-999.0,58,-99.99,,,0.00,weatherlink.com 1.10,2013-04-06 08:06:00,
2013-04-06 04:21:00,26.7,13.0,30.13,NNW,340,13.0,-999.0,56,-99.99,,,0.00,weatherlink.com 1.10,2013-04-06 08:21:00,
2013-04-06 04:51:00,26.1,14.0,30.15,NNW,334,7.0,-999.0,61,-99.99,,,0.00,weatherlink.com 1.10,2013-04-06 08:51:00,
2013-04-06 05:06:00,26.1,13.0,30.15,NNW,339,8.0,-999.0,58,-99.99,,,0.00,weatherlink.com 1.10,2013-04-06 09:06:00,
2013-04-06 05:21:00,25.8,13.0,30.16,NNW,337,6.0,-999.0,58,-99.99,,,0.00,weatherlink.com 1.10,2013-04-06 09:21:00,
2013-04-06 05:36:00,25.6,13.0,30.16,NNW,334,9.0,-999.0,58,-99.99,,,0.00,weatherlink.com 1.10,2013-04-06 09:36:00,
2013-04-06 05:51:00,25.3,13.0,30.17,NNW,333,11.0,-999.0,59,-99.99,,,0.00,weatherlink.com 1.10,2013-04-06 09:51:00,
2013-04-06 06:21:00,25.0,11.0,30.19,NNW,338,7.0,-999.0,56,-99.99,,,0.00,weatherlink.com 1.10,2013-04-06 10:21:00,
2013-04-06 06:36:00,24.7,12.0,30.19,NNW,333,9.0,-999.0,58,-99.99,,,0.00,weatherlink.com 1.10,2013-04-06 10:36:00,
2013-04-06 06:51:00,24.5,12.0,30.19,NW,325,7.0,-999.0,58,-99.99,,,0.00,weatherlink.com 1.10,2013-04-06 10:51:00,
2013-04-06 07:06:00,24.4,11.0,30.21,NNW,327,5.0,-999.0,57,-99.99,,,0.00,weatherlink.com 1.10,2013-04-06 11:06:00,
2013-04-06 07:22:00,24.5,11.0,30.21,NNW,327,5.0,-999.0,57,-99.99,,,0.00,weatherlink.com 1.10,2013-04-06 11:22:00,
2013-04-06 07:36:00,24.7,9.0,30.22,NW,323,6.0,-999.0,52,-99.99,,,0.00,weatherlink.com 1.10,2013-04-06 11:36:00,
2013-04-06 07:51:00,24.5,10.0,30.22,NW,321,4.0,-999.0,54,-99.99,,,0.00,weatherlink.com 1.10,2013-04-06 11:51:00,
2013-04-06 08:06:00,24.7,9.0,30.23,NW,323,5.0,-999.0,52,-99.99,,,0.00,weatherlink.com 1.10,2013-04-06 12:06:00,
2013-04-06 08:21:00,25.3,8.0,30.24,NNW,344,7.0,-999.0,47,-99.99,,,0.00,weatherlink.com 1.10,2013-04-06 12:21:00,
2013-04-06 08:36:00,26.0,8.0,30.24,NNW,329,5.0,-999.0,46,-99.99,,,0.00,weatherlink.com 1.10,2013-04-06 12:36:00,
2013-04-06 08:51:00,26.3,8.0,30.25,North,356,9.0,-999.0,45,-99.99,,,0.00,weatherlink.com 1.10,2013-04-06 12:51:00,
2013-04-06 09:37:00,27.6,8.0,30.25,NNW,340,16.0,-999.0,43,-99.99,,,0.00,weatherlink.com 1.10,2013-04-06 13:37:00,
2013-04-06 09:52:00,28.1,7.0,30.25,NNW,339,12.0,-999.0,40,-99.99,,,0.00,weatherlink.com 1.10,2013-04-06 13:52:00,
2013-04-06 10:07:00,28.1,4.0,30.26,North,356,14.0,-999.0,36,-99.99,,,0.00,weatherlink.com 1.10,2013-04-06 14:07:00,
2013-04-06 10:22:00,28.5,5.0,30.26,North,351,7.0,-999.0,37,-99.99,,,0.00,weatherlink.com 1.10,2013-04-06 14:22:00,
2013-04-06 10:37:00,29.3,5.0,30.26,North,351,5.0,-999.0,35,-99.99,,,0.00,weatherlink.com 1.10,2013-04-06 14:37:00,
2013-04-06 10:52:00,29.5,4.0,30.27,North,356,2.0,-999.0,34,-99.99,,,0.00,weatherlink.com 1.10,2013-04-06 14:52:00,
2013-04-06 11:07:00,30.7,6.0,30.26,NNW,345,9.0,-999.0,35,-99.99,,,0.00,weatherlink.com 1.10,2013-04-06 15:07:00,
2013-04-06 11:22:00,30.9,6.0,30.26,NW,319,5.0,-999.0,35,-99.99,,,0.00,weatherlink.com 1.10,2013-04-06 15:22:00,
2013-04-06 11:37:00,31.6,7.0,30.26,North,351,6.0,-999.0,36,-99.99,,,0.00,weatherlink.com 1.10,2013-04-06 15:37:00,
2013-04-06 11:52:00,31.6,3.0,30.26,NNW,347,1.0,-999.0,29,-99.99,,,0.00,weatherlink.com 1.10,2013-04-06 15:52:00,
2013-04-06 12:07:00,32.7,6.0,30.25,NNW,347,0.0,-999.0,32,-99.99,,,0.00,weatherlink.com 1.10,2013-04-06 16:07:00,
2013-04-06 12:22:00,33.8,5.0,30.25,NNW,347,2.0,-999.0,30,-99.99,,,0.00,weatherlink.com 1.10,2013-04-06 16:22:00,
2013-04-06 12:37:00,35.0,5.0,30.25,NNW,347,0.0,-999.0,28,-99.99,,,0.00,weatherlink.com 1.10,2013-04-06 16:37:00,
2013-04-06 12:52:00,34.6,2.0,30.24,NNW,347,0.0,-999.0,25,-99.99,,,0.00,weatherlink.com 1.10,2013-04-06 16:52:00,
2013-04-06 13:07:00,35.5,4.0,30.24,NNW,347,0.0,-999.0,26,-99.99,,,0.00,weatherlink.com 1.10,2013-04-06 17:07:00,
2013-04-06 13:22:00,35.8,4.0,30.24,NNW,347,1.0,-999.0,26,-99.99,,,0.00,weatherlink.com 1.10,2013-04-06 17:22:00,
2013-04-06 13:37:00,36.6,3.0,30.24,NNW,347,4.0,-999.0,24,-99.99,,,0.00,weatherlink.com 1.10,2013-04-06 17:37:00,
2013-04-06 13:52:00,36.8,4.0,30.23,North,356,0.0,-999.0,25,-99.99,,,0.00,weatherlink.com 1.10,2013-04-06 17:52:00,
2013-04-06 14:07:00,38.5,6.0,30.23,North,356,0.0,-999.0,26,-99.99,,,0.00,weatherlink.com 1.10,2013-04-06 18:07:00,
2013-04-06 14:22:00,36.5,4.0,30.23,North,356,4.0,-999.0,25,-99.99,,,0.00,weatherlink.com 1.10,2013-04-06 18:22:00,
2013-04-06 14:37:00,37.3,3.0,30.23,North,1,3.0,-999.0,24,-99.99,,,0.00,weatherlink.com 1.10,2013-04-06 18:37:00,
2013-04-06 14:52:00,38.6,3.0,30.22,North,351,0.0,-999.0,22,-99.99,,,0.00,weatherlink.com 1.10,2013-04-06 18:52:00,
2013-04-06 15:07:00,38.2,3.0,30.22,North,351,4.0,-999.0,23,-99.99,,,0.00,weatherlink.com 1.10,2013-04-06 19:07:00,
2013-04-06 15:22:00,37.5,7.0,30.21,North,351,3.0,-999.0,28,-99.99,,,0.00,weatherlink.com 1.10,2013-04-06 19:22:00,
2013-04-06 15:37:00,38.5,7.0,30.21,North,351,2.0,-999.0,27,-99.99,,,0.00,weatherlink.com 1.10,2013-04-06 19:37:00,
2013-04-06 15:52:00,38.9,7.0,30.21,North,351,2.0,-999.0,26,-99.99,,,0.00,weatherlink.com 1.10,2013-04-06 19:52:00,
2013-04-06 16:07:00,39.2,8.0,30.20,North,351,0.0,-999.0,28,-99.99,,,0.00,weatherlink.com 1.10,2013-04-06 20:07:00,
2013-04-06 16:22:00,40.6,10.0,30.20,North,351,0.0,-999.0,28,-99.99,,,0.00,weatherlink.com 1.10,2013-04-06 20:22:00,
2013-04-06 16:37:00,40.6,8.0,30.20,North,351,1.0,-999.0,26,-99.99,,,0.00,weatherlink.com 1.10,2013-04-06 20:37:00,
2013-04-06 16:52:00,40.6,9.0,30.20,WNW,295,0.0,-999.0,27,-99.99,,,0.00,weatherlink.com 1.10,2013-04-06 20:52:00,
2013-04-06 17:07:00,39.9,7.0,30.19,NNW,338,2.0,-999.0,26,-99.99,,,0.00,weatherlink.com 1.10,2013-04-06 21:07:00,
2013-04-06 17:22:00,39.9,11.0,30.19,NW,315,0.0,-999.0,30,-99.99,,,0.00,weatherlink.com 1.10,2013-04-06 21:22:00,
2013-04-06 17:37:00,41.1,10.0,30.19,NNW,334,0.0,-999.0,28,-99.99,,,0.00,weatherlink.com 1.10,2013-04-06 21:37:00,
2013-04-06 17:52:00,41.5,10.0,30.19,NW,326,0.0,-999.0,27,-99.99,,,0.00,weatherlink.com 1.10,2013-04-06 21:52:00,
2013-04-06 18:07:00,41.3,9.0,30.18,NW,305,0.0,-999.0,26,-99.99,,,0.00,weatherlink.com 1.10,2013-04-06 22:07:00,
2013-04-06 18:22:00,41.8,7.0,30.18,NW,305,0.0,-999.0,24,-99.99,,,0.00,weatherlink.com 1.10,2013-04-06 22:22:00,
2013-04-06 18:37:00,41.3,9.0,30.18,NW,311,0.0,-999.0,27,-99.99,,,0.00,weatherlink.com 1.10,2013-04-06 22:37:00,
2013-04-06 18:52:00,40.8,11.0,30.18,NW,310,0.0,-999.0,30,-99.99,,,0.00,weatherlink.com 1.10,2013-04-06 22:52:00,
2013-04-06 19:07:00,39.9,8.0,30.18,NW,310,0.0,-999.0,27,-99.99,,,0.00,weatherlink.com 1.10,2013-04-06 23:07:00,
2013-04-06 19:22:00,39.1,8.0,30.18,NW,310,0.0,-999.0,28,-99.99,,,0.00,weatherlink.com 1.10,2013-04-06 23:22:00,
2013-04-06 19:37:00,38.2,8.0,30.18,NW,310,0.0,-999.0,29,-99.99,,,0.00,weatherlink.com 1.10,2013-04-06 23:37:00,
2013-04-06 19:52:00,37.3,6.0,30.17,NW,310,0.0,-999.0,27,-99.99,,,0.00,weatherlink.com 1.10,2013-04-06 23:52:00,
2013-04-06 20:07:00,36.9,11.0,30.18,NW,310,0.0,-999.0,34,-99.99,,,0.00,weatherlink.com 1.10,2013-04-07 00:07:00,
2013-04-06 20:22:00,35.9,9.0,30.18,NW,311,0.0,-999.0,33,-99.99,,,0.00,weatherlink.com 1.10,2013-04-07 00:22:00,
2013-04-06 20:37:00,35.9,11.0,30.17,NW,311,0.0,-999.0,35,-99.99,,,0.00,weatherlink.com 1.10,2013-04-07 00:37:00,
2013-04-06 20:52:00,35.2,15.0,30.18,NW,311,0.0,-999.0,44,-99.99,,,0.00,weatherlink.com 1.10,2013-04-07 00:52:00,
2013-04-06 21:07:00,34.4,11.0,30.18,NW,311,0.0,-999.0,38,-99.99,,,0.00,weatherlink.com 1.10,2013-04-07 01:07:00,
2013-04-06 21:22:00,34.7,12.0,30.18,NW,311,0.0,-999.0,39,-99.99,,,0.00,weatherlink.com 1.10,2013-04-07 01:22:00,
2013-04-06 21:37:00,34.6,11.0,30.18,NW,311,0.0,-999.0,38,-99.99,,,0.00,weatherlink.com 1.10,2013-04-07 01:37:00,
2013-04-06 21:52:00,34.1,14.0,30.17,NNW,336,0.0,-999.0,43,-99.99,,,0.00,weatherlink.com 1.10,2013-04-07 01:52:00,
2013-04-06 22:07:00,34.1,14.0,30.16,North,356,0.0,-999.0,43,-99.99,,,0.00,weatherlink.com 1.10,2013-04-07 02:07:00,
2013-04-06 22:22:00,33.8,13.0,30.15,North,356,0.0,-999.0,43,-99.99,,,0.00,weatherlink.com 1.10,2013-04-07 02:22:00,
2013-04-06 22:38:00,33.7,13.0,30.14,North,356,0.0,-999.0,43,-99.99,,,0.00,weatherlink.com 1.10,2013-04-07 02:38:00,
2013-04-06 22:52:00,34.1,13.0,30.14,North,356,0.0,-999.0,41,-99.99,,,0.00,weatherlink.com 1.10,2013-04-07 02:52:00,
2013-04-06 23:07:00,34.4,12.0,30.13,North,356,0.0,-999.0,40,-99.99,,,0.00,weatherlink.com 1.10,2013-04-07 03:07:00,
2013-04-06 23:22:00,34.6,14.0,30.13,North,356,0.0,-999.0,42,-99.99,,,0.00,weatherlink.com 1.10,2013-04-07 03:22:00,
2013-04-06 23:37:00,34.1,11.0,30.13,North,356,0.0,-999.0,38,-99.99,,,0.00,weatherlink.com 1.10,2013-04-07 03:37:00,
2013-04-06 23:52:00,34.6,11.0,30.13,North,356,0.0,-999.0,38,-99.99,,,0.00,weatherlink.com 1.10,2013-04-07 03:52:00,